[[{"header":{"parameterUnit":"m.s-1","parameterCategory":1,"la1":30.2991,"la2":30.254,"lo1":-89.0895,"lo2":-89.0444,"dy":0.0017,"dx":0.0017,"nx":28,"ny":28,"refTime":"2023-08-12T03:00:00:Z","depth":0,"parameterNumber":2,"parameterNumberName":"U-component_of_WINDS"},"data":[0,0,0,0,0,0,0,0,0,0,0,0,0,0,0,0,0,0,0,0,0,0,0,0,0,0,0,0,0,0,0,0,0,0,0,0,0,0,0,0,0,0,0,0,0,0,0,0,0,0,0,0,0,0,0,0,0,0,4.2307,4.2309,0,4.2453,4.2454,4.2456,4.2413,4.241,4.2407,4.2404,4.2554,4.2561,4.2567,0,0,0,0,0,0,0,0,0,0,0,0,0,4.1993,4.1999,4.2307,4.2309,4.2311,4.2452,4.2454,4.2456,4.2413,4.241,4.2406,4.2402,4.2552,4.256,4.2568,0,0,0,0,0,0,0,0,0,0,0,0,0,4.2133,4.2001,4.2307,4.2306,4.2308,4.2452,4.2454,4.2457,4.2414,4.2409,4.2405,4.2401,4.2549,4.2559,4.2569,4.2723,0,0,4.26,4.2605,0,0,0,0,0,0,0,0,4.2125,4.2145,4.2305,4.2307,4.2308,4.241,4.2398,4.2546,4.2415,4.2374,4.2404,4.2398,4.251,4.2523,4.256,4.273,4.2736,4.2601,4.2607,4.2612,4.2615,0,0,0,0,0,0,0,4.2116,4.2138,4.2365,4.2307,4.2309,4.2299,4.2314,4.2426,4.2465,4.2377,4.2374,4.2392,4.251,4.255,4.2563,4.2738,4.2601,4.261,4.2616,4.262,4.304,4.3045,0,0,0,0,0,0,4.2104,4.213,4.236,4.2369,4.2204,4.2308,4.2325,4.2382,4.2464,4.2472,4.2396,4.2389,4.2535,4.2551,4.2568,4.2752,4.2612,4.2621,4.2627,4.3035,4.3041,4.3047,0,0,0,0,0,0,4.2098,4.2125,4.2354,4.2249,4.2277,4.2319,4.2383,4.2387,4.2427,4.2478,4.2485,4.243,4.2532,4.2554,4.2684,4.2757,4.2626,4.2635,4.3029,4.3037,4.3044,4.3123,0,0,0,0,0,0,4.2089,4.2123,4.2182,4.2251,4.2283,4.2468,4.2387,4.2393,4.2445,4.2438,4.2512,4.252,4.253,4.2669,4.2694,4.2769,4.2643,4.3023,4.3033,4.3042,4.3114,4.3132,4.3148,0,0,0,0,0,4.2078,4.2199,4.2185,4.2213,4.2357,4.2472,4.2491,4.25,4.2451,4.251,4.2543,4.2517,4.2745,4.2683,4.2711,4.2789,4.3018,4.303,4.3041,4.3106,4.3128,4.3147,0,0,0,0,0,0,4.2138,4.2208,4.2193,4.234,4.24,4.2464,4.2539,4.2523,4.2599,4.2589,4.2598,4.2615,4.2748,4.2782,4.2711,4.2942,4.2875,4.2892,4.2915,4.2936,4.2953,4.2941,4.2652,0,0,0,0,0,4.2169,4.2256,4.2312,4.2436,4.2467,4.2498,4.2549,4.255,4.2613,4.2639,4.268,4.2743,4.2828,4.2884,4.2966,4.3119,4.3134,4.3187,4.3204,4.3217,4.3232,4.3314,4.3337,4.3084,4.3084,4.3084,0,0,4.2233,4.2281,4.2336,4.2449,4.2496,4.2586,4.252,4.2618,4.2684,4.2654,4.2778,4.2812,4.2882,4.3023,4.3088,4.3056,4.3305,4.3232,4.3242,4.3249,4.3328,4.3352,4.3373,4.3092,4.309,4.3089,0,0,4.2394,4.244,4.2548,4.2596,4.2667,4.2687,4.2713,4.278,4.28,4.2926,4.2904,4.2983,4.3131,4.3181,4.3226,4.3406,4.3385,4.3433,4.352,4.36,4.362,4.3638,4.37,4.3723,4.3447,4.3448,4.3448,0,4.2464,4.2598,4.2605,4.2705,4.2755,4.2731,4.2839,4.2886,4.2981,4.3016,4.2979,4.3162,4.3208,4.336,4.3404,4.3442,4.3471,4.3424,4.3617,4.3634,4.3651,4.3711,4.3735,4.3453,4.3452,4.3452,4.3451,0,4.268,4.2773,4.2851,4.2942,4.3001,4.3105,4.3128,4.3188,4.3185,4.3208,4.3336,4.339,4.3481,4.3518,4.3516,4.367,4.3648,4.3614,4.3546,4.368,4.3736,4.376,4.346,4.3458,4.3457,4.3455,0,0,4.2883,4.2976,4.3004,4.3045,4.3122,4.3194,4.3296,4.3385,4.3435,4.3502,4.3587,4.3712,4.3681,4.3732,4.3736,4.3806,4.3943,4.3763,4.3765,4.3793,4.4114,4.4138,4.4164,4.393,4.3935,4.3938,4.4107,0,4.3049,4.3228,4.3238,4.3401,4.3486,4.3464,4.3554,4.361,4.3636,4.3712,4.374,4.3828,4.378,4.3811,4.3879,4.3912,4.4007,4.39,4.4009,4.4013,4.399,4.4194,4.422,4.4377,4.413,4.4133,4.4136,0,4.3267,4.3339,4.351,4.3573,4.361,4.369,4.3771,4.3844,4.3908,4.3922,4.3978,4.3972,4.4077,4.4007,4.4151,4.4077,4.4123,4.4146,4.4152,4.4161,4.4081,4.4207,4.4427,4.445,4.4171,4.4168,4.4166,0,4.3396,4.3536,4.3655,4.3691,4.3769,4.3825,4.386,4.3919,4.3972,4.4043,4.4077,4.416,4.4206,4.427,4.4286,4.4234,4.443,4.4361,4.4443,4.4443,4.4484,4.4481,4.4713,4.4517,4.4516,4.4516,4.4515,0,4.358,4.3685,4.3714,4.3788,4.3904,4.3915,4.403,4.4062,4.4114,4.4194,4.4181,4.4256,4.4273,4.4352,4.4365,4.4481,4.4503,4.4516,4.4518,4.4516,4.4514,4.4545,4.4533,4.4522,4.4521,4.4519,4.4518,0,4.3743,4.3767,4.3895,4.3958,4.3976,4.4059,4.4113,4.4183,4.4207,4.4307,4.4331,4.4368,4.446,4.4482,4.4592,4.4601,4.4738,4.4731,4.4716,4.4715,4.4794,4.4786,4.5053,4.5088,4.487,4.4872,4.4874,0,4.3858,4.3938,4.4008,4.406,4.4097,4.4181,4.4234,4.4247,4.4303,4.4381,4.4442,4.4532,4.4604,4.4751,4.4787,4.4871,4.4864,4.4952,4.4877,4.4872,4.4863,4.4857,4.4865,4.4966,4.4968,4.497,4.4972,0,4.4058,4.4066,4.4142,4.4223,4.4286,4.4351,4.4412,4.4456,4.4477,4.4541,4.4633,4.4689,4.48,4.4889,4.4972,4.5009,4.4994,4.4995,4.5018,4.5016,4.5003,4.5009,4.4753,4.4989,4.4987,4.4986,4.4985,4.4984,4.42,4.4269,4.4329,4.4415,4.4462,4.452,4.4588,4.462,4.4697,4.4788,4.4791,4.4892,4.4953,4.5064,4.5105,4.5183,4.5157,4.519,4.5199,4.5206,4.5212,4.4992,4.5199,4.5199,4.5198,4.5198,4.5197,0,4.4398,4.4436,4.4514,4.46,4.4667,4.4647,4.4714,4.4771,4.4859,4.4917,4.4988,4.5094,4.518,4.5223,4.5308,4.5363,4.5358,4.5384,4.538,4.5388,4.5232,4.5203,4.5387,4.5387,4.5387,4.5387,4.5387,4.5387,4.4509,4.4625,4.464,4.4779,4.4816,4.4913,4.4953,4.5006,4.5052,4.517,4.5241,4.5268,4.5321,4.5409,4.5487,4.5497,4.5528,4.5558,4.5565,4.5419,4.5399,4.5381,4.5353,4.5565,4.5566,4.5714,4.5715,4.5716]},{"header":{"parameterUnit":"m.s-1","parameterCategory":1,"la1":30.2991,"la2":30.254,"lo1":-89.0895,"lo2":-89.0444,"dy":0.0017,"dx":0.0017,"nx":28,"ny":28,"refTime":"2023-08-12T03:00:00:Z","depth":0,"parameterNumber":3,"parameterNumberName":"V-component_of_WINDS"},"data":[0,0,0,0,0,0,0,0,0,0,0,0,0,0,0,0,0,0,0,0,0,0,0,0,0,0,0,0,0,0,0,0,0,0,0,0,0,0,0,0,0,0,0,0,0,0,0,0,0,0,0,0,0,0,0,0,0,0,-0.2721,-0.2721,0,-0.2707,-0.2707,-0.2707,-0.2707,-0.2707,-0.2708,-0.2708,-0.2692,-0.2691,-0.269,0,0,0,0,0,0,0,0,0,0,0,0,0,-0.2746,-0.2746,-0.2721,-0.2721,-0.2721,-0.2707,-0.2707,-0.2707,-0.2707,-0.2707,-0.2708,-0.2708,-0.2692,-0.2691,-0.269,0,0,0,0,0,0,0,0,0,0,0,0,0,-0.2734,-0.2746,-0.2721,-0.2719,-0.2719,-0.2707,-0.2707,-0.2707,-0.2707,-0.2707,-0.2708,-0.2708,-0.2692,-0.2691,-0.269,-0.2679,0,0,-0.2688,-0.2687,0,0,0,0,0,0,0,0,-0.2735,-0.2733,-0.272,-0.2719,-0.2719,-0.2709,-0.271,-0.2698,-0.2707,-0.2712,-0.2708,-0.2708,-0.2697,-0.2696,-0.2693,-0.2678,-0.2678,-0.2687,-0.2687,-0.2687,-0.2686,0,0,0,0,0,0,0,-0.2736,-0.2734,-0.2716,-0.2719,-0.2719,-0.2719,-0.2717,-0.2708,-0.2703,-0.2711,-0.2711,-0.271,-0.2697,-0.2693,-0.2692,-0.2677,-0.2687,-0.2687,-0.2686,-0.2686,-0.2654,-0.2654,0,0,0,0,0,0,-0.2737,-0.2734,-0.2716,-0.2715,-0.2728,-0.2718,-0.2716,-0.2712,-0.2703,-0.2702,-0.2709,-0.271,-0.2695,-0.2693,-0.2692,-0.2678,-0.2687,-0.2686,-0.2685,-0.2654,-0.2654,-0.2654,0,0,0,0,0,0,-0.2738,-0.2735,-0.2717,-0.2725,-0.2722,-0.2717,-0.2712,-0.2712,-0.2708,-0.2702,-0.2701,-0.2707,-0.2695,-0.2693,-0.2683,-0.2678,-0.2685,-0.2684,-0.2655,-0.2654,-0.2654,-0.2651,0,0,0,0,0,0,-0.2738,-0.2736,-0.2732,-0.2725,-0.2722,-0.2708,-0.2712,-0.2711,-0.2707,-0.2707,-0.2699,-0.2698,-0.2695,-0.2684,-0.2682,-0.2677,-0.2684,-0.2655,-0.2655,-0.2654,-0.2652,-0.2651,-0.265,0,0,0,0,0,-0.2739,-0.2731,-0.2731,-0.2729,-0.2717,-0.2708,-0.2706,-0.2704,-0.2706,-0.2702,-0.2698,-0.2698,-0.2679,-0.2683,-0.268,-0.2675,-0.2655,-0.2655,-0.2654,-0.2652,-0.2651,-0.265,0,0,0,0,0,0,-0.2736,-0.273,-0.273,-0.2719,-0.2714,-0.2708,-0.2702,-0.2702,-0.2696,-0.2696,-0.2693,-0.2691,-0.2681,-0.2677,-0.2681,-0.2664,-0.2667,-0.2666,-0.2667,-0.2666,-0.2665,-0.2666,-0.2683,0,0,0,0,0,-0.2734,-0.2728,-0.2723,-0.2714,-0.2711,-0.2707,-0.2703,-0.2702,-0.2696,-0.2693,-0.2689,-0.2683,-0.2675,-0.267,-0.2663,-0.2652,-0.265,-0.2647,-0.2646,-0.2645,-0.2644,-0.2638,-0.2637,-0.2652,-0.2652,-0.2652,0,0,-0.273,-0.2726,-0.2722,-0.2713,-0.2709,-0.2702,-0.2705,-0.2698,-0.2692,-0.2692,-0.2682,-0.2679,-0.2672,-0.2661,-0.2656,-0.2657,-0.264,-0.2644,-0.2644,-0.2643,-0.2637,-0.2636,-0.2634,-0.2651,-0.2651,-0.2651,0,0,-0.2719,-0.2715,-0.2708,-0.2704,-0.2698,-0.2695,-0.2694,-0.2687,-0.2685,-0.2676,-0.2675,-0.2669,-0.2656,-0.2652,-0.2647,-0.2636,-0.2636,-0.2634,-0.2629,-0.2623,-0.2622,-0.2621,-0.2617,-0.2615,-0.2633,-0.2633,-0.2633,0,-0.2714,-0.2704,-0.2703,-0.2696,-0.2692,-0.2693,-0.2685,-0.2681,-0.2673,-0.267,-0.2672,-0.2657,-0.2652,-0.264,-0.2638,-0.2634,-0.2632,-0.2634,-0.2622,-0.2621,-0.262,-0.2616,-0.2615,-0.2633,-0.2633,-0.2633,-0.2633,0,-0.2699,-0.2692,-0.2687,-0.268,-0.2675,-0.2668,-0.2665,-0.2661,-0.266,-0.2658,-0.2648,-0.2643,-0.2635,-0.2632,-0.2631,-0.2621,-0.2622,-0.2623,-0.2626,-0.2619,-0.2615,-0.2613,-0.2632,-0.2632,-0.2632,-0.2632,0,0,-0.2684,-0.2678,-0.2676,-0.2673,-0.2667,-0.2662,-0.2654,-0.2648,-0.2644,-0.2638,-0.2632,-0.2622,-0.2624,-0.2619,-0.2618,-0.2613,-0.2604,-0.2615,-0.2614,-0.2613,-0.2592,-0.2591,-0.2589,-0.2604,-0.2604,-0.2604,-0.2593,0,-0.2673,-0.266,-0.266,-0.2648,-0.2642,-0.2643,-0.2637,-0.2632,-0.263,-0.2624,-0.2622,-0.2615,-0.2617,-0.2614,-0.261,-0.2606,-0.26,-0.2607,-0.2598,-0.2598,-0.2599,-0.2587,-0.2586,-0.2576,-0.2592,-0.2591,-0.2591,0,-0.2657,-0.2652,-0.264,-0.2636,-0.2633,-0.2628,-0.2622,-0.2616,-0.2612,-0.261,-0.2606,-0.2606,-0.2598,-0.2602,-0.2592,-0.2596,-0.2593,-0.2591,-0.259,-0.2589,-0.2594,-0.2585,-0.2572,-0.2571,-0.2589,-0.2589,-0.2589,0,-0.2647,-0.2638,-0.263,-0.2627,-0.2622,-0.2618,-0.2616,-0.2611,-0.2607,-0.2602,-0.26,-0.2593,-0.259,-0.2585,-0.2583,-0.2586,-0.2573,-0.2576,-0.2571,-0.2571,-0.2567,-0.2568,-0.2553,-0.2566,-0.2566,-0.2566,-0.2566,0,-0.2634,-0.2627,-0.2626,-0.262,-0.2612,-0.2612,-0.2604,-0.2602,-0.2598,-0.2592,-0.2593,-0.2587,-0.2585,-0.258,-0.2578,-0.257,-0.2568,-0.2567,-0.2566,-0.2566,-0.2566,-0.2563,-0.2564,-0.2565,-0.2566,-0.2566,-0.2566,0,-0.2621,-0.2621,-0.2612,-0.2608,-0.2607,-0.2601,-0.2598,-0.2593,-0.2592,-0.2584,-0.2583,-0.258,-0.2573,-0.2571,-0.2563,-0.2562,-0.2552,-0.2553,-0.2554,-0.2554,-0.2549,-0.2549,-0.2531,-0.2529,-0.2543,-0.2543,-0.2543,0,-0.2613,-0.2607,-0.2604,-0.26,-0.2598,-0.2592,-0.2589,-0.2588,-0.2585,-0.2579,-0.2575,-0.2569,-0.2564,-0.2553,-0.255,-0.2544,-0.2544,-0.2539,-0.2543,-0.2544,-0.2544,-0.2544,-0.2544,-0.2537,-0.2537,-0.2537,-0.2537,0,-0.2597,-0.2597,-0.2593,-0.2588,-0.2584,-0.258,-0.2576,-0.2573,-0.2572,-0.2568,-0.2562,-0.2558,-0.2551,-0.2544,-0.2538,-0.2536,-0.2536,-0.2536,-0.2534,-0.2534,-0.2535,-0.2535,-0.2551,-0.2536,-0.2536,-0.2536,-0.2536,-0.2536,-0.2586,-0.2582,-0.2579,-0.2574,-0.2571,-0.2568,-0.2563,-0.2562,-0.2557,-0.2551,-0.2551,-0.2544,-0.254,-0.2532,-0.253,-0.2524,-0.2526,-0.2523,-0.2523,-0.2522,-0.2522,-0.2537,-0.2523,-0.2523,-0.2523,-0.2523,-0.2523,0,-0.2571,-0.2569,-0.2565,-0.256,-0.2556,-0.2558,-0.2554,-0.255,-0.2545,-0.2541,-0.2537,-0.253,-0.2524,-0.2522,-0.2516,-0.2512,-0.2512,-0.2511,-0.2511,-0.251,-0.252,-0.2522,-0.2511,-0.2511,-0.2511,-0.2511,-0.2511,-0.2511,-0.2562,-0.2555,-0.2555,-0.2546,-0.2545,-0.2539,-0.2536,-0.2533,-0.2531,-0.2523,-0.2519,-0.2518,-0.2515,-0.2509,-0.2504,-0.2503,-0.2501,-0.2499,-0.2499,-0.2508,-0.2509,-0.251,-0.2512,-0.2499,-0.2499,-0.2489,-0.2488,-0.2488]}]]